Regional Weather Roundup
Issued by NWS

Home | Current Version | Previous Version | Graphics & Text | Print | Product List | Glossary On
Versions: 1 2 3 4 5 6 7 8 9 10 11 12 13 14 15 16 17 18 19 20 21 22 23 24 25 26 27 28 29 30 31 32 33 34 35 36 37 38 39 40 41 42 43 44 45 46 47 48 49 50
000
ASUS43 KDTX 080310
RWRMI
MICHIGAN HOURLY REGIONAL WEATHER ROUNDUP
NATIONAL WEATHER SERVICE DETROIT/PONTIAC MI
ISSUED BY NATIONAL WEATHER SERVICE GRAND RAPIDS MI
1000 PM EST WED DEC 07 2016

NOTE: "FAIR" INDICATES FEW OR NO CLOUDS BELOW 12,000 FEET WITH NO
SIGNIFICANT WEATHER AND/OR OBSTRUCTION TO VISIBILITY.

MIZ047>049-052>055-059>063-066>070-074>076-081>083-080400-
SOUTHEAST LOWER MICHIGAN

CITY           SKY/WX    TMP DP  RH WIND       PRES   REMARKS
ADRIAN         MOCLDY    29  21  72 W10       30.06R WCI  20
ALMA           CLOUDY    32  23  70 W12G23    29.98R WCI  23
ANN ARBOR      MOCLDY    28  21  75 W10       30.02S WCI  19
BAD AXE        CLOUDY    32  24  73 W14G22    29.93F WCI  22
DETROIT CITY   MOCLDY    31  21  66 W9        30.02S WCI  23
DETROIT        MOCLDY    30  22  72 W12       30.03F WCI  20
FLINT          CLOUDY    32  22  66 W13G20    29.98F WCI  22
GROSSE ILE     PTCLDY    31  25  78 W6        30.02S WCI  25
HILLSDALE      CLOUDY    28  21  74 W17       30.02S WCI  16
HOWELL         CLOUDY    31  22  69 SW10      29.99F WCI  22

CITY           SKY/WX    TMP DP  RH WIND       PRES   REMARKS
JACKSON        CLOUDY    29  20  69 W13G20    30.02F WCI  19
LANSING        CLOUDY    32  21  64 W18G25    30.00F WCI  20
MASON          CLOUDY    30  23  74 SW8G18    30.01S WCI  23
MONROE         CLEAR     30  26  83 W7        30.03F WCI  23
MT. CLEMENS    PTCLDY    32  23  70 W12       29.99R WCI  23
PONTIAC        CLOUDY    31  21  66 W18       29.98S WCI  19
PORT HOPE        N/A     33  24  69 W8        29.90F WCI  26
PORT HURON     PTCLDY    30  25  80 W3        29.99S
TRI CITIES     CLOUDY    33  24  69 W20G29    29.96S WCI  21
YPSILANTI      CLEAR     30  22  72 W13       30.03S WCI  20
$$
MIZ043>046-050>051-056>058-064>065-071>073-077>080-080400-
SOUTHWEST LOWER MICHIGAN

CITY           SKY/WX    TMP DP  RH WIND       PRES   REMARKS
BATTLE CREEK   CLOUDY    30  22  72 W14       30.04R WCI  19
BENTON HARBOR  CLOUDY    29  20  69 W22       30.10R WCI  15
BIG RAPIDS     CLOUDY    28  19  67 W21G28    29.96S WCI  15
COLDWATER      CLOUDY    28  21  74 W15       30.05S WCI  17
HOLLAND        CLOUDY    30  22  72 W21G28    30.05S WCI  17
GRAND RAPIDS   CLOUDY    30  20  66 W21G32    30.02R WCI  17
KALAMAZOO      CLOUDY    30  18  60 W16G25    30.05S WCI  19
MARSHALL       CLOUDY    29  22  73 SW15      30.03S WCI  18
MOUNT PLEASANT CLOUDY    31  21  67 W17G25    29.95S WCI  19
MUSKEGON       CLOUDY    29  21  72 W14G22    30.04R WCI  18
STURGIS        CLOUDY    27  19  72 W12G23    30.07R WCI  17
$$
MIZ016>042-080400-
NORTHERN LOWER MICHIGAN

CITY           SKY/WX    TMP DP  RH WIND       PRES   REMARKS
ALPENA         CLOUDY    30  17  58 SW12      29.86S WCI  20
BEAVER ISLAND  CLOUDY    28  20  70 W20G28    29.85R WCI  15
BELLAIRE       CLOUDY    29  20  68 SW12G21   29.90R WCI  20
CADILLAC       CLOUDY    24  17  74 W18G29    29.89S WCI  11
CHARLEVOIX     FLURRIES  30  21  71 W22G32    29.89R WCI  16
GAYLORD        LGT SNOW  26  18  71 W18       29.82S WCI  13
HOUGHTON LAKE  CLOUDY    27  18  69 W18G24    29.90S WCI  14
MANISTEE       FLURRIES  27  19  72 W15G21    29.97S WCI  15
OSCODA         CLOUDY    32  19  58 MISG      29.90R
PELLSTON       FLURRIES  29  19  66 W15G30    29.82S WCI  18
TRAVERSE CITY  CLOUDY    29  18  63 W10G23    29.90S WCI  20
LUDINGTON      CLOUDY    27  19  73 W14G21    29.99S WCI  15
$$
MIZ007>008-015-080400-
EASTERN UPPER MICHIGAN

CITY           SKY/WX    TMP DP  RH WIND       PRES   REMARKS
MACKINAC ISLAN CLOUDY    28  20  72 W25G37    29.80S WCI  14
NEWBERRY       PTCLDY    22  13  69 SW15G21   29.79S WCI   9
$$
MIZ004>006-011>014-085-080400-
CENTRAL UPPER MICHIGAN

CITY           SKY/WX    TMP DP  RH WIND       PRES   REMARKS
MANISTIQUE     CLOUDY    24  13  64 W9G18     29.85R WCI  14
SAWYER-GWINN   CLEAR     19  10  68 SW12G22     N/A  WCI   7
$$
MIZ001>003-009>011-084-080400-
WESTERN UPPER MICHIGAN

CITY           SKY/WX    TMP DP  RH WIND       PRES   REMARKS
$$

ABBREVIATIONS USED IN REMARKS
   TC - TEMPERATURE IN CELSIUS
  WCI - WIND CHILL INDEX
   HX - HEAT INDEX
  VSB - VISIBILITY




USA.gov is the U.S. government's official web portal to all federal, state and local government web resources and services.